| time (UTC) | temp F | wind direction | speed MPH | gust MPH | rain 1hr in | rain 24hr in | rain mn in | humidity % | barometer mb |
| 20260903183101 | 73 | 309 | 1.0 | 4.0 | 0.00 | 0.00 | 0.00 | 45 | 1012.1 |
| 20260903181558 | 73 | 195 | 0.0 | 2.0 | 0.00 | 0.00 | 0.00 | 48 | 1012.2 |
| 20260903180057 | 73 | 295 | 0.0 | 2.0 | 0.00 | 0.00 | 0.00 | 47 | 1012.3 |
| 20260903174556 | 73 | 90 | 0.0 | 0.0 | 0.00 | 0.00 | 0.00 | 48 | 1012.3 |
| 20260903173053 | 72 | 174 | 0.0 | 0.0 | 0.00 | 0.00 | 0.00 | 50 | 1012.3 |
| 20260903171550 | 71 | 101 | 0.0 | 0.0 | 0.00 | 0.00 | 0.00 | 50 | 1012.6 |
| 20260903170049 | 70 | 101 | 0.0 | 0.0 | 0.00 | 0.00 | 0.00 | 53 | 1012.7 |
| 20260903164544 | 67 | 95 | 0.0 | 0.0 | 0.00 | 0.00 | 0.00 | 56 | 1012.8 |
| 20260903163044 | 65 | 174 | 0.0 | 0.0 | 0.00 | 0.00 | 0.00 | 58 | 1013.0 |
| 20260903161550 | 65 | 172 | 0.0 | 0.0 | 0.00 | 0.00 | 0.00 | 59 | 1013.1 |
| 20260903160043 | 67 | 132 | 0.0 | 0.0 | 0.00 | 0.00 | 0.00 | 55 | 1013.3 |
| 20260903154538 | 65 | 132 | 0.0 | 0.0 | 0.00 | 0.00 | 0.00 | 61 | 1013.5 |
| 20260903153035 | 59 | 133 | 0.0 | 0.0 | 0.00 | 0.00 | 0.00 | 71 | 1013.7 |
| 20260903151530 | 54 | 133 | 0.0 | 0.0 | 0.00 | 0.00 | 0.00 | 76 | 1013.7 |
| 20260903150033 | 50 | 133 | 0.0 | 0.0 | 0.00 | 0.00 | 0.00 | 81 | 1013.6 |
| 20260903144529 | 49 | 132 | 0.0 | 0.0 | 0.00 | 0.00 | 0.00 | 82 | 1013.6 |
| 20260903143047 | 48 | 133 | 0.0 | 2.0 | 0.00 | 0.00 | 0.00 | 83 | 1013.6 |
| 20260903141528 | 48 | 132 | 0.0 | 1.0 | 0.00 | 0.00 | 0.00 | 83 | 1013.3 |
| 20260903140030 | 47 | 142 | 1.0 | 3.0 | 0.00 | 0.00 | 0.00 | 84 | 1013.2 |
| 20260903134529 | 47 | 147 | 0.0 | 2.0 | 0.00 | 0.00 | 0.00 | 85 | 1013.2 |
| 20260903133025 | 47 | 138 | 1.0 | 3.0 | 0.00 | 0.00 | 0.00 | 85 | 1013.2 |
| 20260903131524 | 47 | 141 | 0.0 | 2.0 | 0.00 | 0.00 | 0.00 | 85 | 1013.1 |
| 20260903130024 | 47 | 136 | 0.0 | 2.0 | 0.00 | 0.00 | 0.00 | 85 | 1013.1 |
| 20260903124523 | 47 | 135 | 0.0 | 3.0 | 0.00 | 0.00 | 0.00 | 85 | 1013.1 |
| 20260903123021 | 48 | 145 | 0.0 | 2.0 | 0.00 | 0.00 | 0.00 | 85 | 1013.2 |
| 20260903121526 | 47 | 143 | 1.0 | 3.0 | 0.00 | 0.00 | 0.00 | 86 | 1013.4 |
| 20260903120016 | 47 | 139 | 1.0 | 2.0 | 0.00 | 0.00 | 0.00 | 86 | 1013.5 |
| 20260903114514 | 48 | 139 | 0.0 | 2.0 | 0.00 | 0.00 | 0.00 | 86 | 1013.7 |
| 20260903113024 | 48 | 137 | 1.0 | 2.0 | 0.00 | 0.00 | 0.00 | 87 | 1013.7 |
| 20260903111541 | 48 | 146 | 0.0 | 3.0 | 0.00 | 0.00 | 0.00 | 87 | 1013.8 |
| 20260903110007 | 48 | 136 | 1.0 | 3.0 | 0.00 | 0.00 | 0.00 | 86 | 1013.9 |
| 20260903104506 | 48 | 142 | 0.0 | 3.0 | 0.00 | 0.00 | 0.00 | 87 | 1013.9 |
| 20260903103004 | 48 | 141 | 0.0 | 3.0 | 0.00 | 0.00 | 0.00 | 87 | 1014.0 |
| 20260903101502 | 48 | 138 | 1.0 | 3.0 | 0.00 | 0.00 | 0.00 | 86 | 1013.9 |
| 20260903100100 | 48 | 141 | 0.0 | 3.0 | 0.00 | 0.00 | 0.00 | 86 | 1013.9 |
| 20260903100002 | 48 | 141 | 1.0 | 3.0 | 0.00 | 0.00 | 0.00 | 86 | 1013.9 |
| 20260903094609 | 48 | 131 | 0.0 | 2.0 | 0.00 | 0.00 | 0.00 | 86 | 1014.0 |
| 20260903093107 | 48 | 137 | 1.0 | 2.0 | 0.00 | 0.00 | 0.00 | 86 | 1014.1 |
| 20260903091555 | 48 | 141 | 1.0 | 3.0 | 0.00 | 0.00 | 0.00 | 86 | 1014.3 |
| 20260903090052 | 48 | 132 | 0.0 | 0.0 | 0.00 | 0.00 | 0.00 | 86 | 1014.4 |
| 20260903084550 | 49 | 133 | 0.0 | 0.0 | 0.00 | 0.00 | 0.00 | 85 | 1014.6 |
| 20260903083053 | 49 | 134 | 0.0 | 0.0 | 0.00 | 0.00 | 0.00 | 84 | 1014.6 |
| 20260903081548 | 49 | 135 | 0.0 | 1.0 | 0.00 | 0.00 | 0.00 | 84 | 1014.6 |
| 20260903080045 | 50 | 137 | 0.0 | 0.0 | 0.00 | 0.00 | 0.00 | 84 | 1014.6 |
| 20260903074543 | 50 | 137 | 0.0 | 0.0 | 0.00 | 0.00 | 0.00 | 84 | 1014.5 |
| 20260903073042 | 51 | 138 | 0.0 | 0.0 | 0.00 | 0.00 | 0.00 | 83 | 1014.6 |
| 20260903071542 | 51 | 138 | 0.0 | 0.0 | 0.00 | 0.00 | 0.00 | 82 | 1014.5 |
| 20260903070039 | 51 | 138 | 0.0 | 0.0 | 0.00 | 0.00 | 0.00 | 82 | 1014.6 |
| 20260903064541 | 52 | 138 | 0.0 | 0.0 | 0.00 | 0.00 | 0.00 | 81 | 1014.6 |
| 20260903063038 | 52 | 138 | 0.0 | 0.0 | 0.00 | 0.00 | 0.00 | 80 | 1014.6 |
| 20260903061550 | 53 | 138 | 0.0 | 1.0 | 0.00 | 0.00 | 0.00 | 80 | 1014.7 |
| 20260903060041 | 53 | 138 | 0.0 | 0.0 | 0.00 | 0.00 | 0.00 | 79 | 1014.8 |
| 20260903054541 | 54 | 138 | 0.0 | 1.0 | 0.00 | 0.00 | 0.00 | 78 | 1014.8 |
| 20260903053038 | 54 | 145 | 0.0 | 1.0 | 0.00 | 0.00 | 0.00 | 77 | 1014.9 |
| 20260903051537 | 55 | 145 | 0.0 | 1.0 | 0.00 | 0.00 | 0.00 | 77 | 1014.8 |
| 20260903050037 | 55 | 137 | 0.0 | 1.0 | 0.00 | 0.00 | 0.00 | 76 | 1014.8 |
| 20260903044540 | 56 | 98 | 0.0 | 1.0 | 0.00 | 0.00 | 0.00 | 75 | 1014.8 |
| 20260903043042 | 56 | 98 | 0.0 | 1.0 | 0.00 | 0.00 | 0.00 | 74 | 1014.7 |
| 20260903041536 | 57 | 50 | 0.0 | 0.0 | 0.00 | 0.00 | 0.00 | 73 | 1014.7 |
| 20260903040035 | 58 | 50 | 0.0 | 1.0 | 0.00 | 0.00 | 0.00 | 71 | 1014.6 |
| 20260903034543 | 58 | 50 | 0.0 | 1.0 | 0.00 | 0.00 | 0.00 | 71 | 1014.4 |
| 20260903033037 | 59 | 50 | 0.0 | 0.0 | 0.00 | 0.00 | 0.00 | 70 | 1014.3 |
| 20260903031543 | 59 | 50 | 0.0 | 0.0 | 0.00 | 0.00 | 0.00 | 69 | 1014.2 |
| 20260903030037 | 60 | 50 | 0.0 | 0.0 | 0.00 | 0.00 | 0.00 | 67 | 1014.2 |
| 20260903024533 | 62 | 49 | 0.0 | 0.0 | 0.00 | 0.00 | 0.00 | 65 | 1014.1 |
| 20260903023032 | 63 | 23 | 0.0 | 0.0 | 0.00 | 0.00 | 0.00 | 63 | 1014.1 |
| 20260903021532 | 64 | 23 | 0.0 | 1.0 | 0.00 | 0.00 | 0.00 | 60 | 1014.1 |
| 20260903020047 | 65 | 23 | 0.0 | 0.0 | 0.00 | 0.00 | 0.00 | 58 | 1014.2 |
| 20260903014536 | 66 | 105 | 0.0 | 1.0 | 0.00 | 0.00 | 0.00 | 57 | 1014.2 |
| 20260903013034 | 67 | 356 | 0.0 | 2.0 | 0.00 | 0.00 | 0.00 | 56 | 1014.3 |
| 20260903011539 | 68 | 319 | 0.0 | 4.0 | 0.00 | 0.00 | 0.00 | 53 | 1014.2 |
| 20260903010034 | 69 | 339 | 0.0 | 2.0 | 0.00 | 0.00 | 0.00 | 50 | 1014.2 |
| 20260903004528 | 70 | 273 | 1.0 | 4.0 | 0.00 | 0.00 | 0.00 | 49 | 1014.3 |
| 20260903003028 | 70 | 205 | 0.0 | 5.0 | 0.00 | 0.00 | 0.00 | 49 | 1014.3 |
| 20260903001528 | 70 | 289 | 0.0 | 4.0 | 0.00 | 0.00 | 0.00 | 49 | 1014.3 |
| 20260903000027 | 71 | 326 | 1.0 | 4.0 | 0.00 | 0.00 | 0.00 | 47 | 1014.3 |
| 20260902234527 | 71 | 17 | 1.0 | 5.0 | 0.00 | 0.00 | 0.00 | 45 | 1014.3 |
| 20260902233027 | 72 | 5 | 1.0 | 4.0 | 0.00 | 0.00 | 0.00 | 44 | 1014.4 |
| 20260902231529 | 72 | 198 | 1.0 | 5.0 | 0.00 | 0.00 | 0.00 | 44 | 1014.5 |
| 20260902230026 | 73 | 338 | 0.0 | 4.0 | 0.00 | 0.00 | 0.00 | 42 | 1014.6 |
| 20260902224527 | 74 | 70 | 1.0 | 4.0 | 0.00 | 0.00 | 0.00 | 39 | 1014.6 |
| 20260902223029 | 74 | 16 | 0.0 | 4.0 | 0.00 | 0.00 | 0.00 | 38 | 1014.6 |
| 20260902221527 | 73 | 293 | 1.0 | 4.0 | 0.00 | 0.00 | 0.00 | 41 | 1014.8 |
| 20260902220030 | 75 | 346 | 1.0 | 3.0 | 0.00 | 0.00 | 0.00 | 37 | 1015.0 |
| 20260902214523 | 76 | 346 | 1.0 | 4.0 | 0.00 | 0.00 | 0.00 | 36 | 1015.1 |
| 20260902213028 | 77 | 228 | 1.0 | 4.0 | 0.00 | 0.00 | 0.00 | 33 | 1015.0 |
| 20260902211522 | 76 | 32 | 1.0 | 3.0 | 0.00 | 0.00 | 0.00 | 39 | 1015.1 |
| 20260902210021 | 74 | 349 | 1.0 | 4.0 | 0.00 | 0.00 | 0.00 | 39 | 1015.1 |
| 20260902204519 | 74 | 198 | 0.0 | 3.0 | 0.00 | 0.00 | 0.00 | 39 | 1015.3 |
| 20260902203019 | 74 | 354 | 0.0 | 4.0 | 0.00 | 0.00 | 0.00 | 40 | 1015.4 |
| 20260902201522 | 74 | 138 | 1.0 | 5.0 | 0.00 | 0.00 | 0.00 | 35 | 1015.5 |
| 20260902200017 | 74 | 271 | 1.0 | 3.0 | 0.00 | 0.00 | 0.00 | 39 | 1015.7 |
| 20260902194522 | 75 | 191 | 0.0 | 3.0 | 0.00 | 0.00 | 0.00 | 38 | 1015.9 |
| 20260902193016 | 75 | 295 | 0.0 | 2.0 | 0.00 | 0.00 | 0.00 | 40 | 1016.0 |
| 20260902191515 | 74 | 297 | 1.0 | 3.0 | 0.00 | 0.00 | 0.00 | 41 | 1016.0 |
| 20260902190011 | 73 | 293 | 1.0 | 4.0 | 0.00 | 0.00 | 0.00 | 42 | 1016.0 |
| 20260902184512 | 73 | 288 | 0.0 | 2.0 | 0.00 | 0.00 | 0.00 | 43 | 1016.0 |